Date,TemperatureHighF,TemperatureAvgF,TemperatureLowF,DewpointHighF,DewpointAvgF,DewpointLowF,HumidityHigh,HumidityAvg,HumidityLow,PressureMaxIn,PressureMinIn,WindSpeedMaxMPH,WindSpeedAvgMPH,GustSpeedMaxMPH,PrecipitationSumIn
2013-4-1,69.4,51.3,35.2,47.7,39.8,31.2,89,67,39,28.50,28.35,11,1,11,0.00
2013-4-2,62.4,51.6,44.4,47.8,43.2,37.2,90,74,49,28.53,28.47,8,1,8,0.00
2013-4-3,66.0,50.9,34.7,43.4,38.0,31.0,90,65,34,28.53,28.29,8,1,8,0.00
2013-4-4,57.9,53.0,48.2,52.1,48.3,41.2,90,84,76,28.29,28.05,11,1,11,0.47
2013-4-5,57.2,50.2,45.9,50.7,47.0,43.4,95,89,75,28.50,28.17,10,1,10,1.65
2013-4-6,53.1,45.7,39.9,45.8,41.1,36.4,94,85,60,29.44,28.44,16,2,16,0.79
2013-4-7,48.4,41.6,37.8,43.3,38.1,34.7,96,88,72,31.01,29.21,13,1,13,0.94
2013-4-8,54.3,43.7,37.9,44.7,39.2,35.9,95,85,56,31.01,29.88,8,0,8,0.20
2013-4-9,58.6,48.1,36.9,41.9,38.6,34.8,93,72,45,31.01,28.56,8,1,8,0.00
2013-4-10,59.4,50.5,44.2,50.3,40.6,32.3,95,70,44,28.64,28.35,14,2,14,0.51
2013-4-11,56.1,45.2,33.3,39.0,32.5,25.6,84,64,37,28.85,28.53,11,2,11,0.00
2013-4-12,52.0,40.7,32.7,39.4,33.6,26.8,94,77,42,29.29,28.29,10,1,10,0.35
2013-4-13,45.5,37.6,33.3,38.4,33.6,27.6,93,85,72,31.01,28.38,10,1,10,0.43
2013-4-14,47.8,40.2,36.0,39.7,35.6,32.1,94,84,60,31.01,28.47,13,1,13,0.28
2013-4-15,53.8,42.6,36.1,41.0,34.3,28.0,94,74,39,31.01,28.56,14,1,14,0.04
2013-4-16,54.0,41.0,32.2,39.2,32.1,25.5,91,73,37,31.01,28.94,21,1,21,0.04
2013-4-17,61.7,44.1,29.5,37.1,31.1,26.4,89,64,34,31.01,29.47,9,1,9,0.00
2013-4-18,55.9,46.9,39.4,44.6,38.6,31.6,92,74,51,31.01,29.59,13,2,13,0.16
2013-4-19,55.8,49.7,46.4,49.7,45.7,42.0,94,86,74,31.01,29.38,9,1,9,0.59
2013-4-20,55.9,47.8,44.4,46.7,42.3,40.0,89,81,66,31.01,29.50,8,1,8,0.04
2013-4-21,55.8,45.8,37.4,45.0,39.6,33.0,91,80,54,31.01,29.62,12,2,12,0.20
2013-4-22,60.6,47.0,34.9,38.8,32.7,23.4,94,62,36,31.01,29.18,13,2,13,0.00
2013-4-23,61.9,45.8,29.3,39.3,27.5,22.9,84,54,26,31.01,29.29,15,2,15,0.00
2013-4-24,68.2,51.5,31.8,37.8,29.7,24.7,84,48,25,31.01,28.94,13,2,13,0.00
2013-4-25,70.7,52.7,33.6,40.8,34.0,27.7,82,53,29,31.01,28.67,14,2,14,0.00
2013-4-26,77.0,55.1,36.3,44.3,36.3,31.5,84,54,26,31.01,28.82,15,2,15,0.00
2013-4-27,63.1,50.1,40.3,45.9,38.4,31.2,90,68,33,31.01,30.36,8,1,8,0.12
2013-4-28,61.7,52.0,45.5,48.5,41.6,34.0,92,71,39,31.01,30.89,11,1,11,0.16
2013-4-29,55.8,46.7,36.3,44.8,32.9,22.6,91,62,37,31.01,30.98,15,2,15,0.16
2013-4-30,55.4,42.7,32.2,32.0,26.2,21.7,78,55,32,31.01,30.95,13,2,13,0.00